Location: Paris
(48.6709°N, 2.3750°E)
Time: 20:32:07
(UTC+02:00)

YUBILEINY - Pass Details

Date: 06 July 2022
Orbit: 1478 x 1509 km, 82.5° (Epoch: 08 August)

Event Time Altitude Azimuth Distance (km) Brightness Sun altitude
Rises 03:42:16 0° 351° (N) 4,653 ? -14.7°
Reaches altitude 10° 03:45:57 10° 5° (N) 3,664 ? -14.5°
Maximum altitude 03:52:56 25° 58° (ENE) 2,647 ? -13.9°
Drops below altitude 10° 03:59:50 10° 111° (ESE) 3,632 ? -13.4°
Sets 04:03:26 0° 124° (SE) 4,603 ? -13.1°
